This is the latest recevied weather packets stored in our database for station/object W4KBW. If no packets are shown the sender has not sent any weather packets the latest 10 day(s).
| Time | Temp. | Humidity | Pressure | Rain* | Wind** | Luminosity | Snow |
|---|---|---|---|---|---|---|---|
| 1777406658 | 31.11° C | 100% | 1017.4 hPa | 0 mm | - | - | - |
| 1777405753 | 31.11° C | 100% | 1017.5 hPa | 0 mm | - | - | - |
| 1777405621 | 31.11° C | 100% | 1017.5 hPa | 0 mm | - | - | - |
| 1777404693 | 30.56° C | 100% | 1017.9 hPa | 0 mm | - | - | - |
| 1777403761 | 30.56° C | 100% | 1017.9 hPa | 0 mm | - | - | - |
| 1777403077 | 30.56° C | 100% | 1017.9 hPa | 0 mm | - | - | - |
| 1777400131 | 30° C | 100% | 1017.9 hPa | 0 mm | - | - | - |
| 1777399231 | 31.11° C | 100% | 1017.8 hPa | 0 mm | - | - | - |
| 1777398332 | 31.67° C | 100% | 1017.9 hPa | 0 mm | - | - | - |
| 1777397519 | 31.11° C | 100% | 1018.1 hPa | 0 mm | - | - | - |
| 1777397401 | 31.11° C | 100% | 1018.1 hPa | 0 mm | - | - | - |
| 1777396471 | 30° C | 100% | 1018.3 hPa | 0 mm | - | - | - |
| 1777395571 | 29.44° C | 100% | 1018.3 hPa | 0 mm | - | - | - |
| 1777394671 | 30° C | 100% | 1018.5 hPa | 0 mm | - | - | - |
| 1777393771 | 28.33° C | 100% | 1018.8 hPa | 0 mm | - | - | - |
| 1777393030 | 28.33° C | 100% | 1019 hPa | 0 mm | - | - | - |
| 1777392871 | 28.33° C | 100% | 1019 hPa | 0 mm | - | - | - |
| 1777389241 | 28.33° C | 100% | 1019 hPa | 0 mm | - | - | - |
| 1777388513 | 27.22° C | 100% | 1019 hPa | 0 mm | - | - | - |
| 1777386481 | 25.56° C | 100% | 1018.9 hPa | 0 mm | - | - | - |
| 1777385785 | 25° C | 100% | 1018.7 hPa | 0 mm | - | - | - |
| 1777385581 | 25° C | 100% | 1018.7 hPa | 0 mm | - | - | - |
| 1777384681 | 24.44° C | 100% | 1018.6 hPa | 0 mm | - | - | - |
| 1777383751 | 23.89° C | 100% | 1018.7 hPa | 0 mm | - | - | - |
| 1777383026 | 23.33° C | 100% | 1018.6 hPa | 0 mm | - | - | - |
* Rain latest hour (hover to see other rain measurements)
** Current wind speed in m/s (hover to see current wind gust speed)